This is the latest recevied weather packets stored in our database for station/object W0WC. If no packets are shown the sender has not sent any weather packets the latest 10 day(s).
| Time | Temp. | Humidity | Pressure | Rain* | Wind** | Luminosity | Snow |
|---|---|---|---|---|---|---|---|
| 1788462135 | 36.11° C | 38% | 1014 hPa | 0 mm | - | 711 W/m² | - |
| 1788461829 | 36.67° C | 37% | 1014.4 hPa | 0 mm | - | 713 W/m² | - |
| 1788461525 | 36.11° C | 38% | 1014.1 hPa | 0 mm | - | 716 W/m² | - |
| 1788461221 | 36.67° C | 37% | 1014.4 hPa | 0 mm | - | 719 W/m² | - |
| 1788460921 | 36.11° C | 39% | 1014.1 hPa | 0 mm | - | 723 W/m² | - |
| 1788460616 | 36.11° C | 39% | 1014.5 hPa | 0 mm | - | 724 W/m² | - |
| 1788460311 | 35.56° C | 40% | 1014.8 hPa | 0 mm | - | 724 W/m² | - |
| 1788460010 | 35.56° C | 40% | 1014.7 hPa | 0 mm | - | 724 W/m² | - |
| 1788459706 | 35.56° C | 40% | 1014.7 hPa | 0 mm | - | 724 W/m² | - |
| 1788459404 | 35.56° C | 41% | 1014.8 hPa | 0 mm | - | 726 W/m² | - |
| 1788459098 | 35.56° C | 41% | 1014.7 hPa | 0 mm | - | 723 W/m² | - |
| 1788458794 | 36.11° C | 41% | 1014.9 hPa | 0 mm | - | 724 W/m² | - |
| 1788458488 | 35.56° C | 41% | 1014.9 hPa | 0 mm | - | 722 W/m² | - |
| 1788458187 | 35.56° C | 41% | 1015 hPa | 0 mm | - | 720 W/m² | - |
| 1788457887 | 35° C | 41% | 1015.1 hPa | 0 mm | - | 718 W/m² | - |
| 1788457581 | 35° C | 42% | 1015.3 hPa | 0 mm | - | 718 W/m² | - |
| 1788457276 | 35° C | 42% | 1015.4 hPa | 0 mm | - | 713 W/m² | - |
| 1788456971 | 35° C | 42% | 1015.5 hPa | 0 mm | - | 711 W/m² | - |
| 1788456668 | 35° C | 42% | 1015.6 hPa | 0 mm | - | 705 W/m² | - |
| 1788456363 | 35° C | 42% | 1015.6 hPa | 0 mm | - | 702 W/m² | - |
| 1788456058 | 35° C | 43% | 1015.7 hPa | 0 mm | - | 692 W/m² | - |
| 1788455758 | 35.56° C | 42% | 1015.6 hPa | 0 mm | - | 684 W/m² | - |
| 1788455454 | 34.44° C | 44% | 1015.8 hPa | 0 mm | - | 681 W/m² | - |
| 1788455152 | 33.89° C | 45% | 1015.7 hPa | 0 mm | - | 677 W/m² | - |
| 1788454848 | 34.44° C | 45% | 1015.8 hPa | 0 mm | - | 672 W/m² | - |
* Rain latest hour (hover to see other rain measurements)
** Current wind speed in m/s (hover to see current wind gust speed)